Weather History for CZFS - December, 2011

Change the Weather History Date:

Wednesday, December 14, 2011

  Actual Average Record
Temperature  
Mean Temperature 2 °F -  
Max Temperature 6 °F - - ()
Min Temperature -2 °F - - ()
Degree Days  
Heating Degree Days 63    
Moisture  
Dew Point -3 °F    
Average Humidity 80    
Maximum Humidity 88    
Minimum Humidity 68    
Precipitation  
Precipitation 0.00 in - - ()
Sea Level Pressure  
Sea Level Pressure 30.15 in    
Wind  
Wind Speed 5 mph ()    
Max Wind Speed 13 mph    
Max Gust Speed -    
T = Trace of Precipitation, MM = Missing Value Source: Averaged Metar Reports

Daily Weather History Graph

Daily Weather History Graph

Search for Another Location

Airport or City:

Trip Planner

Search our weather history database for the weather conditions in past years. The results will help you decide how hot, cold, wet, or windy it might be!

Date:

Astronomy

Dec. 14, 2011 Rise Set
Actual Time 10:19 AM MST 3:39 PM MST
Civil Twilight 9:15 AM MST 4:43 PM MST
Nautical Twilight 8:14 AM MST 5:44 PM MST
Astronomical Twilight 7:19 AM MST 6:39 PM MST
Moon 9:15 PM MST (12/14) 12:04 PM MST (12/14)
Length of Visible Light 7h 28m
Length of Day
5h 20m
Waning Gibbous, 83% of the Moon is Illuminated
Dec 14
Waning Gibbous
Dec 17
Last Quarter
Dec 24
New
Dec 31
First Quarter
Jan 9
Full

Hourly Weather History & Observations

Time (MST) Temp. Windchill Dew Point Humidity Pressure Visibility Wind Dir Wind Speed Gust Speed Precip Events Conditions
12:00 AM 3.4 °F -13.6 °F -1.5 °F 80% 30.04 in - North 12.7 mph - N/A   Unknown
1:00 AM 2.8 °F -14.3 °F -2.4 °F 79% 30.05 in - North 12.7 mph - N/A   Unknown
2:00 AM 2.7 °F -12.0 °F -3.6 °F 75% 30.08 in - North 9.2 mph - N/A   Unknown
3:00 AM 2.7 °F -12.0 °F -4.2 °F 73% 30.10 in - North 9.2 mph - N/A   Unknown
4:00 AM 2.1 °F -11.6 °F -4.4 °F 74% 30.11 in - NNW 8.1 mph - N/A   Unknown
5:00 AM 2 °F - -3 °F 68% 30.12 in - NNW 8.1 mph - -  
5:00 AM 1.9 °F -11.8 °F -3.3 °F 79% 30.12 in - NNW 8.1 mph - N/A   Unknown
6:00 AM 1.8 °F -7.8 °F -4.7 °F 74% 30.14 in - NNW 4.6 mph - N/A   Unknown
7:00 AM 1.8 °F -5.8 °F -4.9 °F 74% 30.14 in - North 3.5 mph - N/A   Unknown
8:00 AM 1.8 °F - -4.4 °F 76% 30.17 in - NNW 2.3 mph - N/A   Unknown
9:00 AM 1.6 °F - -4.0 °F 77% 30.17 in - NE 1.2 mph - N/A   Unknown
10:00 AM 1.6 °F - -3.6 °F 79% 30.17 in - Calm Calm - N/A   Unknown
11:00 AM 2 °F - -3 °F 69% 30.18 in - Calm Calm - -  
11:00 AM 1.9 °F - -3.1 °F 79% 30.18 in - Calm Calm - N/A   Unknown
12:00 PM 2.7 °F - -2.6 °F 79% 30.18 in - Calm Calm - N/A   Unknown
1:00 PM 3.6 °F - -0.9 °F 82% 30.17 in - Calm Calm - N/A   Unknown
2:00 PM 4.8 °F - 1.0 °F 84% 30.15 in - SE 1.2 mph - N/A   Unknown
3:00 PM 5.9 °F - 2.5 °F 86% 30.16 in - ESE 2.3 mph - N/A   Unknown
4:00 PM 5.4 °F -3.6 °F 1.6 °F 84% 30.16 in - SE 4.6 mph - N/A   Unknown
5:00 PM 4 °F - 0 °F 76% 30.17 in - ESE 3.5 mph - -  
5:00 PM 3.7 °F -3.6 °F 0.1 °F 85% 30.17 in - ESE 3.5 mph - N/A   Unknown
6:00 PM 2.7 °F -4.8 °F -0.4 °F 87% 30.16 in - ESE 3.5 mph - N/A   Unknown
7:00 PM 1.6 °F -6.0 °F -1.3 °F 88% 30.16 in - SE 3.5 mph - N/A   Unknown
8:00 PM 0.5 °F -7.3 °F -2.4 °F 88% 30.16 in - SE 3.5 mph - N/A   Unknown
9:00 PM 0.1 °F -7.7 °F -2.7 °F 88% 30.17 in - SE 3.5 mph - N/A   Unknown
10:00 PM -1.5 °F -11.6 °F -4.7 °F 86% 30.16 in - SE 4.6 mph - N/A   Unknown
11:00 PM -2 °F - -5 °F 80% 30.16 in - SE 3.5 mph - -  
11:00 PM -1.8 °F -9.9 °F -5.1 °F 86% 30.16 in - SE 3.5 mph - N/A   Unknown